Flag for India Weather past 2 weeks in Lucknow, Uttar Pradesh, India

Now
54 °F

Fog.


Feels Like: 54 °F
Forecast: 46 / 67 °F
Wind: 2 mph from North

Location: Lucknow / Amausi

Current Time: Dec 29, 2014 at 4:01:31 PM

Latest Report: Dec 29, 2014 at 3:00 PM


Visibility: 1 mi

Pressure: 30.01 "Hg

Humidity: 88%

Dew point: 50 °F

Location of LucknowLocation

Historic Weather in Lucknow — Graph

°F

Lucknow temperature yesterday

Maximum temperature yesterday: 50 °F (at 1:00 PM)
Minimum temperature yesterday: 45 °F (at 5:30 AM)
Average temperature yesterday: 48 °F

Past Weeks' High & Low Weather Summary

 TemperatureHumidityPressure
High70 °F (Dec 15, 2:30 PM)100% (Dec 16, 5:30 AM)30.24 "Hg (Dec 16, 5:30 AM)
Low36 °F (Dec 24, 7:00 AM)35% (Dec 24, 1:30 PM)29.95 "Hg (Dec 26, 4:30 PM)
Average55 °F83%30.06 "Hg
* Reported Dec 14 2:30 PM — Dec 29 2:30 PM, Lucknow, Weather by CustomWeather, © 2014

Note: Actual official high and low records may vary slightly from our data, if they occured in-between our weather recording intervals... More about our weather records

Advertising

Lucknow weather history for previous 24 hours

 ConditionsComfort  
Time TempWeatherWind HumidityBarometerVisibility
2:30 PM
Dec 29
54 °FFog.3 mph88%30.01 "Hg1 mi
2:00 PM52 °FFog.3 mph94%30.01 "Hg1 mi
1:00 PM52 °FFog.3 mph94%30.04 "Hg1 mi
11:30 AM50 °FFog.2 mph100%30.09 "Hg0 mi
11:00 AM48 °FFog.2 mph100%30.09 "Hg0 mi
10:00 AM48 °FFog.2 mph100%30.09 "Hg0 mi
9:30 AM48 °FFog.2 mph100%30.09 "Hg0 mi
9:00 AM48 °FFog.2 mph100%30.09 "Hg0 mi
8:30 AM48 °FFog.2 mph100%30.09 "Hg0 mi
8:00 AM48 °FFog.2 mph100%30.07 "Hg0 mi
7:30 AM48 °FFog.No wind100%30.07 "Hg0 mi
6:30 AM48 °FFog.No wind100%30.04 "Hg0 mi
6:00 AM48 °FFog.No wind100%30.04 "Hg0 mi
5:30 AM48 °FFog.No wind100%30.04 "Hg0 mi
5:00 AM48 °FFog.No wind100%30.04 "Hg0 mi
4:00 AM45 °FFog.No wind100%30.04 "Hg0 mi
3:00 AM48 °FFog.No wind100%30.04 "Hg0 mi
2:00 AM48 °FFog.No wind100%30.07 "Hg0 mi
1:00 AM48 °FFog.No wind100%30.07 "Hg0 mi
12:00 AM48 °FFog.No wind100%30.07 "Hg0 mi
11:00 PM
Dec 28
48 °FFog.No wind100%30.07 "Hg0 mi
10:00 PM48 °FFog.No wind100%30.09 "Hg0 mi
9:00 PM48 °FFog.No wind100%30.07 "Hg0 mi
8:30 PM48 °FFog.No wind100%30.09 "Hg0 mi
8:00 PM48 °FFog.No wind94%30.07 "Hg0 mi
6:30 PM50 °FFog.2 mph94%30.07 "Hg1 mi
6:00 PM50 °FFog.2 mph94%30.07 "Hg1 mi
5:30 PM50 °FFog.2 mph94%30.07 "Hg1 mi
5:00 PM48 °FFog.2 mph94%30.07 "Hg1 mi
4:30 PM50 °FFog.2 mph94%30.07 "Hg1 mi
Weather by CustomWeather, © 2014

See weather overviewHow to use our weather pages